Погода в Аккудуке

Хотите узнать прогноз погоды в Аккудуке? Тогда Вам сюда: Погода в Аккудуке

Поиск расширенной информации на нашем сайте:

Полезная информация:

Новости сайта



02.01.2020
Опубликован Долгосрочный прогноз погоды по городам России и ближнего зарубежья на январь 2020 года.
Карты: Прогноз на январь и февраль 2020 года, Сравнение прогнозируемой аномалии приземной температуры воздуха на январь 2020 года по разным моделям.




Погода в Аккудуке - сегодня

Время (UTC), дата Ветер
(°,м/с) 
Видим.   Явления Облачность Т
(°С)
Тd
(°С)
f(%) Тe
(°С)
Pmin
(гПа)
dP
(гПа)
Po
(мм)
O2
(г/м3)
Тmin Tmax R s Состояние
почвы
12 22.10.21 250 (З) 10  19000 м    н/о 
+17.2 +5.2 45 +16  1042.3  -0.7  775  293           
15 22.10.21 220 (ЮЗ) 20000 м    н/о 
+11.5 +3.5 58 +11  1042.8  0.4  775  299    +18.1       
18 22.10.21 330 (СЗ) 20000 м    н/о 
+9.9 +2.3 59 +9  1043.3  0.4  776  301    +18.1       
21 22.10.21 290 (З) 20000 м    н/о 
+6.1 -1.1 60 +6  1042.9  -0.4  775  306           
00 23.10.21 350 (С) 20000 м    н/о 
+3.1 -2.4 67 +3  1042.6  -0.4  775  309           
03 23.10.21 090 (В) 20000 м    н/о 
+0.8 -4.4 68 +1  1042.6  775  312           
06 23.10.21 360 (С) 20000 м    н/о 
+12.3 -4.8 30 +11  1041.7  -0.4  774  299           
09 23.10.21 350 (С) 20000 м    н/о 
+19.2 -6.4 17 +19  1038.9  -2.6  773  291           
12 23.10.21 360 (С) 20000 м    н/о 
+20.5 -16.5 7 +21  1037.4  -1.4  771  290           
15 23.10.21 330 (СЗ) 20000 м    н/о 
+14.6 -12.6 14 +14  1038.3  0.8  772  296    +20.6       
18 23.10.21 360 (С) 20000 м    н/о 
+11.5 -8.4 24 +10  1038.3  772  299    +20.6       
21 23.10.21 330 (СЗ) 20000 м    н/о 
+9.5 -9.5 25 +10  1037  -1.4  771  301           
00 24.10.21 190 (Ю) 20000 м    н/о 
+5.4 -8.5 36 +5  1036.6  -0.4  770  305           
03 24.10.21 050 (СВ) 19000 м    н/о 
+1.5 -10 42 +2  1036.8  0.1  770  310           
06 24.10.21 280 (З) 20000 м    н/о 
+13 -5.5 27 +13  1035.4  -0.9  770  297           
09 24.10.21 320 (СЗ) 20000 м    н/о 
+19.3 -4.2 20 +20  1032.9  -2.2  768  290           
12 24.10.21 310 (СЗ) 20000 м    н/о 
+19.8 -4.5 19 +20  1031.6  -1.3  767  289           
15 24.10.21 200 (Ю) 20000 м    н/о 
+13 -4.6 29 +13  1032.4  0.6  767  296    +20.4       
18 24.10.21 160 (Ю) 20000 м    н/о 
+9.4 -3.8 39 +9  1032  -0.5  767  299    +20.4       
21 24.10.21 280 (З) 20000 м    н/о 
+3.8 -7.3 44 +3  1031.4  -0.7  767  305           
00 25.10.21 310 (СЗ) 20000 м    н/о 
+2.8 -6.6 50 +2  1030.7  -0.6  766  306           
03 25.10.21 060 (СВ) 20000 м    н/о 
+0.5 -9.5 47 +1  1031.2  0.4  766  309           
06 25.10.21 320 (СЗ) 20000 м    н/о 
+11.4 -3.1 36 +13  1031  0.2  766  297           
09 25.10.21 100 (В) 20000 м    н/о 
+17.8 -1.9 26 +19  1029.8  -0.9  766  290           
12 25.10.21 020 (С) 20000 м    н/о 
+19.3 -4.2 20 +20  1029.8  0.1  766  289           
Время (UTC), дата Ветер
(°,м/с) 
Видим.   Явления Облачность Т
(°С)
Тd
(°С)
f(%) Тe
(°С)
Pmin
(гПа)
dP
(гПа)
Po
(мм)
O2
(г/м3)
Тmin Tmax R s Состояние
почвы

Для получения пояснительной информации подведите курсор к названию столбца.

ПОГОДА в Аккудуке - архив

Всё, что Вы хотите узнать о погоде в Аккудуке - удобно и подробно!

Выберите нужную дату (начиная с 1 января 2019* года) и нажмите кнопку "Найти".
Будут отображены архивные сводки погоды по пункту Аккудук, начиная с указанной даты.


Отображать данные в формате CSV (для использования в таблицах Excel)


Внимание! Наш архив погоды предназначен исключительно для личного некоммерческого использования в познавательных целях. Если Вам необходимы официальные справки о состоянии погоды (для производственных, юридических, коммерческих и т.п. целей), обращайтесь в органы Росгидромета.

*Примечание: данная дата относится к архиву по метеостанциям СССР (Россия, СНГ, Балтия).
Архив по метеостанциям Зарубежной Европы и Азии (кроме Китая) хранится 10 дней, по другим регионам земного шара (Китай, Африка, Америка, Австралия, Океания) - 1 день.

Аккудук - район местоположения метеостанции


Название, широта, долгота, высота метеостанции:
Аккудук 42.1°ш. 54.1°д. 78 м над ур. моря [Казахстан]

Дополнительная информация

В oтличие oт бoльшинства пoгoдных сайтoв мы публикуем пoдрoбную метеoинфoрмацию в детальнoм прoфессиoнальнoм фoрмате.

Характеристики температуры и влажнoсти вoздуха измеряются на высoте 2 м в тени вдали oт зданий и деревьев.
Скoрoсть ветра измеряется на высoте 10 м (на урoвне рoста челoвека скoрoсть ветра ниже в 1.5-2 раза). Если метеoстанция нахoдится в гoрoде или в лесу, тo скoрoсть ветра занижена на 2-4 м/с пo сравнению с oткрытым местoм. Скoрoсть ветра над акватoриями крупных рек и oзёр, а также на вершинах хoлмoв на 2-5 м/с выше, чем в oбычных услoвиях.
Атмoсфернoе давление в разных тoчках местнoсти мoжет значительнo oтличаться oт давления на метеoстанции, в зависимoсти oт услoвий рельефа (при пoдъёме на 10 м давление пoнижается примернo на 1 мм рт.ст.).